星链-1665 (STARLINK-1665 )

导读

STARLINK-1665是美国太空探索技术公司(SpaceX)星链计划中的卫星,于2020年9月3日发射。星链计划旨在搭建全球卫星互联网,为全球提供高速宽带服务。该卫星入轨后,与其他星链卫星组网,进一步扩充星链星座规模,推动全球卫星通信网络的覆盖建设。

基本信息
目录编号:
46356
目录名称:
STARLINK-1665
国际标识:
2020-062AH
轨道中心:
EARTH
卫星名称:
星链-1665
卫星全名:
星链-1665 (STARLINK-1665 )
卫星状态:
在轨 (已飞行2111 天)
发射日期:
2020-09-03 UTC
国别 :
美国 (US)
星等 :
--
轨道信息
数据来源 国际轨道数据
星历时间: 2026-06-15T03:50:46+0800
4小时前
查看轨道信息
半长轴: 6649.675km
偏心率: 0.0002142
轨道倾角: 53.029°
近地点辐角 23.148°
升交点赤经 211.801°
平近点角 336.964°
近地点: 270.113km
远地点: 272.963km
周期: 89.942分钟
每日圈数: 16.010401
详细信息
固有亮度:
5
最大亮度:
2.5
卫星平台:
Starlink V1.0
覆盖范围:
全球
运营商:
太空探索技术公司
运营商所在国:
美国
制造商(研发单位):
太空探索技术公司
制造商所在国:
美国
使用方式:
暂无
卫星简介
星链(Starlink)计划是由太空探索技术公司(SpaceX)提出的一个巨型低轨卫星互联网星座项目,计划在2019年至2024年间在太空搭建由约1.2万颗卫星组成的“星链”网络,其中1584颗将部署在地球上空550千米处的近地轨道,并从2020年开始工作。该卫星仍在工作。
2D轨道图
3D轨道图
轨道高度分析图
轨道倾角分析图
轨道综合分析图
查看轨道综合分析图